CZ-6A DEB, 54461

Orbit data source: Space-Track

CZ-6A DEB, 54461 is space debris in SSO originally from a launch on Fri, 11 Nov 2022 UTC launched from the Taiyaun Space Center, China (TSC). Debris objects in space refer to the collection of defunct objects orbiting the Earth. Examples of debris include non-operational satellites, rocket bodies, and fragments generated from explosions, collisions, or faulty payload assembly.

Loading next visibility...
Identifier
54461, 2022-151GM
Orbit
SSO
Country
Flag of CNCN / PRC
Related business
Manufacturer
SAST
Mission
Spacecraft
Bus & Motor
Unknown
Mass
Unknown
Launch date (UTC)
2022-11-11 (4 years ago)
Launch vehicle
Unknown
Launch site
Taiyaun Space Center, China (TSC)
Object type
Payload
Rocket body
Debris
Shape & HBR
Unknown shape, 0.1 m
Radar Cross Section
Medium (>0.1 m² and <1 m²)

Expand to show TLE details & history
Last TLE update: 2 days ago

TLE from 2 days ago
0 CZ-6A DEB
1 54461U 22151GM  26171.42596316  .00000679  00000-0  46357-3 0  9994
2 54461  99.0137 166.4695 0130057  33.1087 327.8134 13.99196348183447
Epoch: 2026-06-20T10:13Z
TLE epoch observation values (Epoch: 2026-06-20T10:13:23.217Z)
Latitude
0.00001°
Longitude
104.482°
Altitude
819.723 km
Speed
7.484 km/s
True Right ascension
11h 05m 52s
True Declination
0° 00' 00"
Sunlit
Object was in daylight at epoch
Visualization orbit readout
Latitude
Unknown
Longitude
Unknown
Altitude
Unknown
Speed
Unknown
Apparent Right ascension
Unknown
Apparent Declination
Unknown
Sunlit
N/A
Visualization observer readout
Local Sidereal Time
21:59:46
Azimuth
Unknown
Elevation
Unknown
Doppler factor
Unknown
Orbital elements
Apogee altitude
988.356 km
Perigee altitude
799.203 km
Semi-major axis
7,271.917 km
Eccentricity
0.01301
Inclination
99.0137°
RAAN
166.4695°
Arg. of periapsis
33.1087°
True anomaly
327.00848°
Mean anomaly
327.8134°
Eccentric anomaly
327.41206°
Mean motion
3.50001 °/min
Orbital period
102.86 mins
BSTAR
0.00046357
Loading maneuver chart data...
Computing Atmospheric mass density...
Loading historical data...
Loading historical data...
Loading historical data...
Loading historical data...
Loading historical data...
Loading historical data...
Loading historical data...

Documentation

Showing up to 5 results
|